STARLINK-34848, 65402

Orbit data source: Space-Track

STARLINK-34848, 65402 is a payload satellite owned by SpaceX/Seattle (US) in SSO that was launched on Sat, 30 Aug 2025 UTC via an FALCON 9 launch vehicle from the Air Force Western Test Range (AFWTR). Payload-class satellites include a variety of spacecraft equipped with specific instruments for various scientific and technological missions. These include communications satellites like Starlink; space stations such as the ISS; scientific satellites like the Hubble; Earth observation satellites from companies like Planet Labs, Umbra, and HawkEye 360; GPS; miniature CubeSats for education and research; and military/defense satellites.

Loading next visibility...
Identifier
65402, 2025-191Z
Orbit
SSO
Country
Flag of USUS
Related business
Manufacturer
SpaceX/Seattle
Mission
Operational Commercial Communications
Bus & Motor
STARLINK V2MO, Unknown motor
Mass
575 kg wet, ~530 kg dry
Launch date (UTC)
2025-08-30 (7 months ago)
Launch vehicle
FALCON 9
Launch site
Air Force Western Test Range (AFWTR)
Object type
Payload
Rocket body
Debris
Shape & HBR
Box + 2 Pan, 17.7 m
Radar Cross Section
36.964 m², Large (>1 m²)

Expand to show TLE details & history
Last TLE update: 17 hours ago

TLE from 17 hours ago
0 STARLINK-34848
1 65402U 25191Z   26093.62261632  .00007085  00000-0  49455-3 0  9993
2 65402  97.6019 326.1405 0002276  85.1786 274.9701 15.05662206 34026
Epoch: 2026-04-03T14:56Z
TLE epoch observation values (Epoch: 2026-04-03T14:56:34.050Z)
Latitude
0.00004°
Longitude
-89.95548°
Altitude
552.403 km
Speed
7.586 km/s
True Right ascension
21h 44m 33s
True Declination
0° 00' 00"
Sunlit
Object was in daylight at epoch
Visualization orbit readout
Latitude
Unknown
Longitude
Unknown
Altitude
Unknown
Speed
Unknown
Apparent Right ascension
Unknown
Apparent Declination
Unknown
Sunlit
N/A
Visualization observer readout
Local Sidereal Time
13:20:56
Azimuth
Unknown
Elevation
Unknown
Doppler factor
Unknown
Orbital elements
Apogee altitude
548.043 km
Perigee altitude
544.891 km
Semi-major axis
6,924.604 km
Eccentricity
0.00023
Inclination
97.6019°
RAAN
326.1405°
Arg. of periapsis
85.1786°
True anomaly
274.94412°
Mean anomaly
274.9701°
Eccentric anomaly
274.95711°
Mean motion
3.76661 °/min
Orbital period
95.58 mins
BSTAR
0.00049455
Loading maneuver chart data...
Computing Atmospheric mass density...
Loading historical data...
Loading historical data...
Loading historical data...
Loading historical data...
Loading historical data...
Loading historical data...
Loading historical data...

Documentation

Showing up to 5 results
|